Track STARLINK-1640 now! 10-day predictions STARLINK-1640 is classified as:
1 46173U 20057BJ 21021.59445672 -.00000287 00000-0 -35486-6 0 9994 2 46173 53.0593 85.2456 0001608 60.1250 299.9899 15.06399905 24409